Location: Wanzleben
(52.0609°N, 11.4408°E)
Time: 19:22:24
(UTC+00:00)

Landsat 7 - Visible Passes

Search period start: 26 January 2021 00:00
Search period end: 05 February 2021 00:00
Orbit: 701 x 703 km, 98.1° (Epoch: 26 January)

Date Brightness Start Highest point End Pass type
(mag) Time Alt. Az. Time Alt. Az. Time Alt. Az.
31 Jan 6.4 19:27:45 11° N 19:27:45 11° N 19:27:56 10° N visible
01 Feb 6.2 18:31:57 10° NNE 18:31:57 10° NNE 18:32:00 10° NNE visible
02 Feb 6.3 19:15:01 12° N 19:15:01 12° N 19:15:27 10° N visible
03 Feb 6.1 18:19:12 10° NNE 18:19:12 10° NNE 18:19:16 10° NNE visible
03 Feb 6.5 19:58:04 12° NNW 19:58:04 12° NNW 19:58:25 10° NNW visible
04 Feb 6.1 19:02:16 13° N 19:02:16 13° N 19:02:56 10° N visible
